sat.trackr.live / text

‹ back to catalog

STARLINK-35579

NORAD 66562 · 2025-268F

PAYLOAD ACTIVE UNKNOWN

§ Identity

Operator
Country
US
Launch date
2025-11-21
Launch site
AFETR
Launch vehicle
Mass (kg)
RCS (m²)

Purposes: comms

External: N2YO · Heavens-Above · Gunter

§ Orbital elements

Epoch: 2026-09-20T05:45:10.902528Z

Period
94.27 min
Inclination
43.0012°
Eccentricity
0.0001038
Mean motion
15.27586775 rev/d
Perigee alt
482.3 km
Apogee alt
483.7 km
Semi-major
6,861.2 km
B*
4.8178e-4
RAAN
328.3468°
Arg perigee
236.4737°
Mean anomaly
123.6015°
Rev number
4,771

§ Raw data

STARLINK-355791 66562U 25268F   26263.23970952  .00013022  00000+0  48178-3 0  99922 66562  43.0012 328.3468 0001038 236.4737 123.6015 15.27586775 47715

JSON: /api/v1/satellites/66562 · /tle

For live sub-satellite position, see the globe view (requires WebGL).

§ Visibility from observer

Set your observer location to see the next 7 days of passes ≥ 10°. The values pass through the URL so the page stays shareable.

No JS? Fill the form by hand. The geolocation button needs JavaScript.